Tracking 31027 objects as of 19-Jul-2025
HD Live streaming from Space Station
objects crossing your sky now

IRIDIUM 33 DEB

Track IRIDIUM 33 DEB now!
10-day predictions


NORAD ID: 35616
Int'l Code: 1997-051QN
Perigee: 638.1 km
Apogee: 652.9 km
Inclination: 86.4 °
Period: 97.5 minutes
Semi major axis: 7016 km
RCS: 0.0074 m2 (small)
Launch date: September 14, 1997
Source: United States (US)
Launch site: TYURATAM MISSILE AND SPACE COMPLEX (TTMTR)

Note: This is SATELLITE DEBRIS
Your satellite tracking list
GEOTAIL
Track 1 satellite(s)




NASA's NSSDC Master Catalog

Two Line Element Set (TLE):
1 35616U 97051QN  25199.85419481  .00007316  00000-0  10304-2 0  9996
2 35616  86.3538  52.5011 0010597 350.8046   9.2977 14.77141552856244
Source of the keplerian elements: AFSPC